Year,Month,Day,Hour,Minute,Value (Times are PST for windspeed in km/hr)
2010,06,02,00,00,9.40
2010,06,02,00,01,6.40
2010,06,02,00,02,6.40
2010,06,02,00,03,4.20
2010,06,02,00,04,7.00
2010,06,02,00,05,7.40
2010,06,02,00,06,5.90
2010,06,02,00,07,8.50
2010,06,02,00,08,8.80
2010,06,02,00,09,9.50
2010,06,02,00,10,8.60
2010,06,02,00,11,10.10
2010,06,02,00,12,13.10
2010,06,02,00,13,6.10
2010,06,02,00,14,7.70
2010,06,02,00,15,7.30
2010,06,02,00,16,6.20
2010,06,02,00,17,4.80
2010,06,02,00,18,5.10
2010,06,02,00,19,7.60
2010,06,02,00,20,3.60
2010,06,02,00,21,10.90
2010,06,02,00,22,5.80
2010,06,02,00,23,7.00
2010,06,02,00,24,9.20
2010,06,02,00,25,8.30
2010,06,02,00,26,9.10
2010,06,02,00,27,6.70
2010,06,02,00,28,8.20
2010,06,02,00,29,8.90
2010,06,02,00,30,8.10
2010,06,02,00,31,7.50
2010,06,02,00,32,7.10
2010,06,02,00,33,7.50
2010,06,02,00,34,7.00
2010,06,02,00,35,5.90
2010,06,02,00,36,5.60
2010,06,02,00,37,7.50
2010,06,02,00,38,6.10
2010,06,02,00,39,7.40
2010,06,02,00,40,6.00
2010,06,02,00,41,3.40
2010,06,02,00,42,6.60
2010,06,02,00,43,4.30
2010,06,02,00,44,8.50
2010,06,02,00,45,4.50
2010,06,02,00,46,3.20
2010,06,02,00,47,3.30
2010,06,02,00,48,4.80
2010,06,02,00,49,6.40
2010,06,02,00,50,6.40
2010,06,02,00,51,5.10
2010,06,02,00,52,3.60
2010,06,02,00,53,3.10
2010,06,02,00,54,7.10
2010,06,02,00,55,6.90
2010,06,02,00,56,4.80
2010,06,02,00,57,4.80
2010,06,02,00,58,5.70
2010,06,02,00,59,6.40
2010,06,02,01,00,8.90
2010,06,02,01,01,5.40
2010,06,02,01,02,4.50
2010,06,02,01,03,4.20
2010,06,02,01,04,5.80
2010,06,02,01,05,8.30
2010,06,02,01,06,3.70
2010,06,02,01,07,4.60
2010,06,02,01,08,4.40
2010,06,02,01,09,5.80
2010,06,02,01,10,4.30
2010,06,02,01,11,8.00
2010,06,02,01,12,7.80
2010,06,02,01,13,9.00
2010,06,02,01,14,5.70
2010,06,02,01,15,6.40
2010,06,02,01,16,5.40
2010,06,02,01,17,5.90
2010,06,02,01,18,2.00
2010,06,02,01,19,6.80
2010,06,02,01,20,7.60
2010,06,02,01,21,6.40
2010,06,02,01,22,7.90
2010,06,02,01,23,6.10
2010,06,02,01,24,5.30
2010,06,02,01,25,5.40
2010,06,02,01,26,6.00
2010,06,02,01,27,4.30
2010,06,02,01,28,3.40
2010,06,02,01,29,6.20
2010,06,02,01,30,6.70
2010,06,02,01,31,9.60
2010,06,02,01,32,6.20
2010,06,02,01,33,3.70
2010,06,02,01,34,6.30
2010,06,02,01,35,5.90
2010,06,02,01,36,4.30
2010,06,02,01,37,5.00
2010,06,02,01,38,7.10
2010,06,02,01,39,5.40
2010,06,02,01,40,3.80
2010,06,02,01,41,3.70
2010,06,02,01,42,3.40
2010,06,02,01,43,4.70
2010,06,02,01,44,5.10
2010,06,02,01,45,5.80
2010,06,02,01,46,4.40
2010,06,02,01,47,5.00
2010,06,02,01,48,5.80
2010,06,02,01,49,4.70
2010,06,02,01,50,4.20
2010,06,02,01,51,5.30
2010,06,02,01,52,4.30
2010,06,02,01,53,3.10
2010,06,02,01,54,5.20
2010,06,02,01,55,2.30
2010,06,02,01,56,2.30
2010,06,02,01,57,4.60
2010,06,02,01,58,4.00
2010,06,02,01,59,3.90
2010,06,02,02,00,4.50
2010,06,02,02,01,8.70
2010,06,02,02,02,10.60
2010,06,02,02,03,5.70
2010,06,02,02,04,6.20
2010,06,02,02,05,5.70
2010,06,02,02,06,6.30
2010,06,02,02,07,7.10
2010,06,02,02,08,9.70
2010,06,02,02,09,6.70
2010,06,02,02,10,8.40
2010,06,02,02,11,5.90
2010,06,02,02,12,5.30
2010,06,02,02,13,8.40
2010,06,02,02,14,6.30
2010,06,02,02,15,8.90
2010,06,02,02,16,4.30
2010,06,02,02,17,5.30
2010,06,02,02,18,5.30
2010,06,02,02,19,5.50
2010,06,02,02,20,6.10
2010,06,02,02,21,5.60
2010,06,02,02,22,4.70
2010,06,02,02,23,5.30
2010,06,02,02,24,7.60
2010,06,02,02,25,6.50
2010,06,02,02,26,5.30
2010,06,02,02,27,5.10
2010,06,02,02,28,3.90
2010,06,02,02,29,3.50
2010,06,02,02,30,7.10
2010,06,02,02,31,6.50
2010,06,02,02,32,5.40
2010,06,02,02,33,5.20
2010,06,02,02,34,6.10
2010,06,02,02,35,4.60
2010,06,02,02,36,3.10
2010,06,02,02,37,2.80
2010,06,02,02,38,6.50
2010,06,02,02,39,6.40
2010,06,02,02,40,4.10
2010,06,02,02,41,2.80
2010,06,02,02,42,3.70
2010,06,02,02,43,3.30
2010,06,02,02,44,3.70
2010,06,02,02,45,4.30
2010,06,02,02,46,4.70
2010,06,02,02,47,3.70
2010,06,02,02,48,3.40
2010,06,02,02,49,3.80
2010,06,02,02,50,3.90
2010,06,02,02,51,3.40
2010,06,02,02,52,4.50
2010,06,02,02,53,2.80
2010,06,02,02,54,3.40
2010,06,02,02,55,2.70
2010,06,02,02,56,4.90
2010,06,02,02,57,5.20
2010,06,02,02,58,3.40
2010,06,02,02,59,4.10
2010,06,02,03,00,5.30
2010,06,02,03,01,4.10
2010,06,02,03,02,5.40
2010,06,02,03,03,4.20
2010,06,02,03,04,3.30
2010,06,02,03,05,4.50
2010,06,02,03,06,3.60
2010,06,02,03,07,3.00
2010,06,02,03,08,3.60
2010,06,02,03,09,6.60
2010,06,02,03,10,3.40
2010,06,02,03,11,4.40
2010,06,02,03,12,2.50
2010,06,02,03,13,1.60
2010,06,02,03,14,0.90
2010,06,02,03,15,0.30
2010,06,02,03,16,1.50
2010,06,02,03,17,1.10
2010,06,02,03,18,0.80
2010,06,02,03,19,0.20
2010,06,02,03,20,0.00
2010,06,02,03,21,0.90
2010,06,02,03,22,2.90
2010,06,02,03,23,1.00
2010,06,02,03,24,1.10
2010,06,02,03,25,2.20
2010,06,02,03,26,1.30
2010,06,02,03,27,0.80
2010,06,02,03,28,0.60
2010,06,02,03,29,0.90
2010,06,02,03,30,0.10
2010,06,02,03,31,0.10
2010,06,02,03,32,0.00
2010,06,02,03,33,0.00
2010,06,02,03,34,0.00
2010,06,02,03,35,0.00
2010,06,02,03,36,0.20
2010,06,02,03,37,0.80
2010,06,02,03,38,0.00
2010,06,02,03,39,0.00
2010,06,02,03,40,0.00
2010,06,02,03,41,0.10
2010,06,02,03,42,0.00
2010,06,02,03,43,0.20
2010,06,02,03,44,0.00
2010,06,02,03,45,0.00
2010,06,02,03,46,0.00
2010,06,02,03,47,0.00
2010,06,02,03,48,0.00
2010,06,02,03,49,0.00
2010,06,02,03,50,0.20
2010,06,02,03,51,0.80
2010,06,02,03,52,2.40
2010,06,02,03,53,2.30
2010,06,02,03,54,2.50
2010,06,02,03,55,1.70
2010,06,02,03,56,1.30
2010,06,02,03,57,0.10
2010,06,02,03,58,0.90
2010,06,02,03,59,3.20
2010,06,02,04,00,0.70
2010,06,02,04,01,1.80
2010,06,02,04,02,3.80
2010,06,02,04,03,3.80
2010,06,02,04,04,3.30
2010,06,02,04,05,3.50
2010,06,02,04,06,2.70
2010,06,02,04,07,3.20
2010,06,02,04,08,3.30
2010,06,02,04,09,4.20
2010,06,02,04,10,4.40
2010,06,02,04,11,4.60
2010,06,02,04,12,4.80
2010,06,02,04,13,1.50
2010,06,02,04,14,2.50
2010,06,02,04,15,5.50
2010,06,02,04,16,1.90
2010,06,02,04,17,2.00
2010,06,02,04,18,4.40
2010,06,02,04,19,4.50
2010,06,02,04,20,4.20
2010,06,02,04,21,4.40
2010,06,02,04,22,0.90
2010,06,02,04,23,2.50
2010,06,02,04,24,3.60
2010,06,02,04,25,2.80
2010,06,02,04,26,3.90
2010,06,02,04,27,6.30
2010,06,02,04,28,4.60
2010,06,02,04,29,3.80
2010,06,02,04,30,2.30
2010,06,02,04,31,4.10
2010,06,02,04,32,2.30
2010,06,02,04,33,3.20
2010,06,02,04,34,3.40
2010,06,02,04,35,6.70
2010,06,02,04,36,4.60
2010,06,02,04,37,2.30
2010,06,02,04,38,0.40
2010,06,02,04,39,0.70
2010,06,02,04,40,0.70
2010,06,02,04,41,0.60
2010,06,02,04,42,2.00
2010,06,02,04,43,2.80
2010,06,02,04,44,2.00
2010,06,02,04,45,2.60
2010,06,02,04,46,4.60
2010,06,02,04,47,2.30
2010,06,02,04,48,0.20
2010,06,02,04,49,0.10
2010,06,02,04,50,1.70
2010,06,02,04,51,1.40
2010,06,02,04,52,1.20
2010,06,02,04,53,3.20
2010,06,02,04,54,3.10
2010,06,02,04,55,0.20
2010,06,02,04,56,0.50
2010,06,02,04,57,1.20
2010,06,02,04,58,2.80
2010,06,02,04,59,3.10
2010,06,02,05,00,3.10
2010,06,02,05,01,2.20
2010,06,02,05,02,7.00
2010,06,02,05,03,3.10
2010,06,02,05,04,2.60
2010,06,02,05,05,1.10
2010,06,02,05,06,1.30
2010,06,02,05,07,5.50
2010,06,02,05,08,1.80
2010,06,02,05,09,0.80
2010,06,02,05,10,2.40
2010,06,02,05,11,2.30
2010,06,02,05,12,2.00
2010,06,02,05,13,1.40
2010,06,02,05,14,3.40
2010,06,02,05,15,0.70
2010,06,02,05,16,1.30
2010,06,02,05,17,0.40
2010,06,02,05,18,1.00
2010,06,02,05,19,4.90
2010,06,02,05,20,1.00
2010,06,02,05,21,2.70
2010,06,02,05,22,2.10
2010,06,02,05,23,2.80
2010,06,02,05,24,3.20
2010,06,02,05,25,5.60
2010,06,02,05,26,3.70
2010,06,02,05,27,7.40
2010,06,02,05,28,2.90
2010,06,02,05,29,2.30
2010,06,02,05,30,7.50
2010,06,02,05,31,5.40
2010,06,02,05,32,4.30
2010,06,02,05,33,5.80
2010,06,02,05,34,7.20
2010,06,02,05,35,4.00
2010,06,02,05,36,9.40
2010,06,02,05,37,5.20
2010,06,02,05,38,7.60
2010,06,02,05,39,10.50
2010,06,02,05,40,4.50
2010,06,02,05,41,4.40
2010,06,02,05,42,3.90
2010,06,02,05,43,4.50
2010,06,02,05,44,7.10
2010,06,02,05,45,8.20
2010,06,02,05,46,7.20
2010,06,02,05,47,3.40
2010,06,02,05,48,7.40
2010,06,02,05,49,5.90
2010,06,02,05,50,3.00
2010,06,02,05,51,2.40
2010,06,02,05,52,3.60
2010,06,02,05,53,2.60
2010,06,02,05,54,5.10
2010,06,02,05,55,5.80
2010,06,02,05,56,6.20
2010,06,02,05,57,3.10
2010,06,02,05,58,1.00
2010,06,02,05,59,5.70
2010,06,02,06,00,5.80
2010,06,02,06,01,3.80
2010,06,02,06,02,1.80
2010,06,02,06,03,1.40
2010,06,02,06,04,0.30
2010,06,02,06,05,2.80
2010,06,02,06,06,6.90
2010,06,02,06,07,4.20
2010,06,02,06,08,2.60
2010,06,02,06,09,3.30
2010,06,02,06,10,5.10
2010,06,02,06,11,7.70
2010,06,02,06,12,6.40
2010,06,02,06,13,7.90
2010,06,02,06,14,6.00
2010,06,02,06,15,2.50
2010,06,02,06,16,2.90
2010,06,02,06,17,4.90
2010,06,02,06,18,3.60
2010,06,02,06,19,3.90
2010,06,02,06,20,6.00
2010,06,02,06,21,5.60
2010,06,02,06,22,6.90
2010,06,02,06,23,10.90
2010,06,02,06,24,3.70
2010,06,02,06,25,9.10
2010,06,02,06,26,4.10
2010,06,02,06,27,5.10
2010,06,02,06,28,5.60
2010,06,02,06,29,4.90
2010,06,02,06,30,4.00
2010,06,02,06,31,3.40
2010,06,02,06,32,7.60
2010,06,02,06,33,4.70
2010,06,02,06,34,3.90
2010,06,02,06,35,3.00
2010,06,02,06,36,5.10
2010,06,02,06,37,4.40
2010,06,02,06,38,4.00
2010,06,02,06,39,4.10
2010,06,02,06,40,4.40
2010,06,02,06,41,6.90
2010,06,02,06,42,9.00
2010,06,02,06,43,8.10
2010,06,02,06,44,5.10
2010,06,02,06,45,2.90
2010,06,02,06,46,5.20
2010,06,02,06,47,3.40
2010,06,02,06,48,3.10
2010,06,02,06,49,3.80
2010,06,02,06,50,3.80
2010,06,02,06,51,6.20
2010,06,02,06,52,4.50
2010,06,02,06,53,6.20
2010,06,02,06,54,6.80
2010,06,02,06,55,2.20
2010,06,02,06,56,4.70
2010,06,02,06,57,6.20
2010,06,02,06,58,7.20
2010,06,02,06,59,8.60
2010,06,02,07,00,4.70
2010,06,02,07,01,5.80
2010,06,02,07,02,2.10
2010,06,02,07,03,3.20
2010,06,02,07,04,5.60
2010,06,02,07,05,5.50
2010,06,02,07,06,5.10
2010,06,02,07,07,4.90
2010,06,02,07,08,5.40
2010,06,02,07,09,6.50
2010,06,02,07,10,6.40
2010,06,02,07,11,4.50
2010,06,02,07,12,7.20
2010,06,02,07,13,5.20
2010,06,02,07,14,7.80
2010,06,02,07,15,5.40
2010,06,02,07,16,5.70
2010,06,02,07,17,7.70
2010,06,02,07,18,5.50
2010,06,02,07,19,6.90
2010,06,02,07,20,4.80
2010,06,02,07,21,6.90
2010,06,02,07,22,4.40
2010,06,02,07,23,1.80
2010,06,02,07,24,4.20
2010,06,02,07,25,6.70
2010,06,02,07,26,4.10
2010,06,02,07,27,7.10
2010,06,02,07,28,5.20
2010,06,02,07,29,3.40
2010,06,02,07,30,4.50
2010,06,02,07,31,5.20
2010,06,02,07,32,5.00
2010,06,02,07,33,2.90
2010,06,02,07,34,3.10
2010,06,02,07,35,5.20
2010,06,02,07,36,5.20
2010,06,02,07,37,4.00
2010,06,02,07,38,3.70
2010,06,02,07,39,5.20
2010,06,02,07,40,1.30
2010,06,02,07,41,9.00
2010,06,02,07,42,6.90
2010,06,02,07,43,4.30
2010,06,02,07,44,5.80
2010,06,02,07,45,5.00
2010,06,02,07,46,6.60
2010,06,02,07,47,4.20
2010,06,02,07,48,5.70
2010,06,02,07,49,3.10
2010,06,02,07,50,3.30
2010,06,02,07,51,1.80
2010,06,02,07,52,6.30
2010,06,02,07,53,2.70
2010,06,02,07,54,3.50
2010,06,02,07,55,3.20
2010,06,02,07,56,8.30
2010,06,02,07,57,4.40
2010,06,02,07,58,3.00
2010,06,02,07,59,8.20
2010,06,02,08,00,5.70
2010,06,02,08,01,4.10
2010,06,02,08,02,3.50
2010,06,02,08,03,3.10
2010,06,02,08,04,2.60
2010,06,02,08,05,2.50
2010,06,02,08,06,4.00
2010,06,02,08,07,8.00
2010,06,02,08,08,4.90
2010,06,02,08,09,3.70
2010,06,02,08,10,4.60
2010,06,02,08,11,8.70
2010,06,02,08,12,4.10
2010,06,02,08,13,3.00
2010,06,02,08,14,3.90
2010,06,02,08,15,3.90
2010,06,02,08,16,3.40
2010,06,02,08,17,4.80
2010,06,02,08,18,4.90
2010,06,02,08,19,5.70
2010,06,02,08,20,5.80
2010,06,02,08,21,7.40
2010,06,02,08,22,5.00
2010,06,02,08,23,6.90
2010,06,02,08,24,6.40
2010,06,02,08,25,5.30
2010,06,02,08,26,7.00
2010,06,02,08,27,2.10
2010,06,02,08,28,6.40
2010,06,02,08,29,4.40
2010,06,02,08,30,4.00
2010,06,02,08,31,2.30
2010,06,02,08,32,4.70
2010,06,02,08,33,4.30
2010,06,02,08,34,4.50
2010,06,02,08,35,2.40
2010,06,02,08,36,4.70
2010,06,02,08,37,3.40
2010,06,02,08,38,6.00
2010,06,02,08,39,3.10
2010,06,02,08,40,5.70
2010,06,02,08,41,7.00
2010,06,02,08,42,6.00
2010,06,02,08,43,5.30
2010,06,02,08,44,3.90
2010,06,02,08,45,3.00
2010,06,02,08,46,2.60
2010,06,02,08,47,2.50
2010,06,02,08,48,5.10
2010,06,02,08,49,4.50
2010,06,02,08,50,3.40
2010,06,02,08,51,3.00
2010,06,02,08,52,3.60
2010,06,02,08,53,3.40
2010,06,02,08,54,5.40
2010,06,02,08,55,9.50
2010,06,02,08,56,6.70
2010,06,02,08,57,8.70
2010,06,02,08,58,4.50
2010,06,02,08,59,1.40
2010,06,02,09,00,5.10
2010,06,02,09,01,4.40
2010,06,02,09,02,4.20
2010,06,02,09,03,4.50
2010,06,02,09,04,3.80
2010,06,02,09,05,3.30
2010,06,02,09,06,2.60
2010,06,02,09,07,4.40
2010,06,02,09,08,4.70
2010,06,02,09,09,3.10
2010,06,02,09,10,0.30
2010,06,02,09,11,2.30
2010,06,02,09,12,2.90
2010,06,02,09,13,5.00
2010,06,02,09,14,2.60
2010,06,02,09,15,3.80
2010,06,02,09,16,3.40
2010,06,02,09,17,3.80
2010,06,02,09,18,3.00
2010,06,02,09,19,6.30
2010,06,02,09,20,4.20
2010,06,02,09,21,5.60
2010,06,02,09,22,4.60
2010,06,02,09,23,6.10
2010,06,02,09,24,3.20
2010,06,02,09,25,5.50
2010,06,02,09,26,6.60
2010,06,02,09,27,8.20
2010,06,02,09,28,4.50
2010,06,02,09,29,5.00
2010,06,02,09,30,3.50
2010,06,02,09,31,0.30
2010,06,02,09,32,4.30
2010,06,02,09,33,2.50
2010,06,02,09,34,2.70
2010,06,02,09,35,2.10
2010,06,02,09,36,2.70
2010,06,02,09,37,1.50
2010,06,02,09,38,2.20
2010,06,02,09,39,2.90
2010,06,02,09,40,4.20
2010,06,02,09,41,2.20
2010,06,02,09,42,0.40
2010,06,02,09,43,0.00
2010,06,02,09,44,1.20
2010,06,02,09,45,2.30
2010,06,02,09,46,0.70
2010,06,02,09,47,2.30
2010,06,02,09,48,3.10
2010,06,02,09,49,5.80
2010,06,02,09,50,3.10
2010,06,02,09,51,1.60
2010,06,02,09,52,1.80
2010,06,02,09,53,3.40
2010,06,02,09,54,5.90
2010,06,02,09,55,4.30
2010,06,02,09,56,2.60
2010,06,02,09,57,3.40
2010,06,02,09,58,3.30
2010,06,02,09,59,3.60
2010,06,02,10,00,2.60
2010,06,02,10,01,5.00
2010,06,02,10,02,5.70
2010,06,02,10,03,2.70
2010,06,02,10,04,0.60
2010,06,02,10,05,1.40
2010,06,02,10,06,0.30
2010,06,02,10,07,2.60
2010,06,02,10,08,3.30
2010,06,02,10,09,3.10
2010,06,02,10,10,0.60
2010,06,02,10,11,0.70
2010,06,02,10,12,5.40
2010,06,02,10,13,3.50
2010,06,02,10,14,2.40
2010,06,02,10,15,2.10
2010,06,02,10,16,3.20
2010,06,02,10,17,0.60
2010,06,02,10,18,1.80
2010,06,02,10,19,2.00
2010,06,02,10,20,2.00
2010,06,02,10,21,2.70
2010,06,02,10,22,0.90
2010,06,02,10,23,1.60
2010,06,02,10,24,2.30
2010,06,02,10,25,3.40
2010,06,02,10,26,2.10
2010,06,02,10,27,1.20
2010,06,02,10,28,0.30
2010,06,02,10,29,1.80
2010,06,02,10,30,0.70
2010,06,02,10,31,1.50
2010,06,02,10,32,0.80
2010,06,02,10,33,1.90
2010,06,02,10,34,0.50
2010,06,02,10,35,0.10
2010,06,02,10,36,1.20
2010,06,02,10,37,0.50
2010,06,02,10,38,1.50
2010,06,02,10,39,1.20
2010,06,02,10,40,2.80
2010,06,02,10,41,3.70
2010,06,02,10,42,2.00
2010,06,02,10,43,1.50
2010,06,02,10,44,0.30
2010,06,02,10,45,0.30
2010,06,02,10,46,2.70
2010,06,02,10,47,0.70
2010,06,02,10,48,0.40
2010,06,02,10,49,0.00
2010,06,02,10,50,1.10
2010,06,02,10,51,0.30
2010,06,02,10,52,0.30
2010,06,02,10,53,0.40
2010,06,02,10,54,0.80
2010,06,02,10,55,3.40
2010,06,02,10,56,3.00
2010,06,02,10,57,2.20
2010,06,02,10,58,2.70
2010,06,02,10,59,0.60
2010,06,02,11,00,0.20
2010,06,02,11,01,2.60
2010,06,02,11,02,2.50
2010,06,02,11,03,1.70
2010,06,02,11,04,0.50
2010,06,02,11,05,1.20
2010,06,02,11,06,1.50
2010,06,02,11,07,0.70
2010,06,02,11,08,0.00
2010,06,02,11,09,0.50
2010,06,02,11,10,1.10
2010,06,02,11,11,1.10
2010,06,02,11,12,0.20
2010,06,02,11,13,1.40
2010,06,02,11,14,0.40
2010,06,02,11,15,0.50
2010,06,02,11,16,2.00
2010,06,02,11,17,0.30
2010,06,02,11,18,2.00
2010,06,02,11,19,0.20
2010,06,02,11,20,0.20
2010,06,02,11,21,0.00
2010,06,02,11,22,0.00
2010,06,02,11,23,2.10
2010,06,02,11,24,2.50
2010,06,02,11,25,3.60
2010,06,02,11,26,1.80
2010,06,02,11,27,1.40
2010,06,02,11,28,1.50
2010,06,02,11,29,0.10
2010,06,02,11,30,0.10
2010,06,02,11,31,0.00
2010,06,02,11,32,0.00
2010,06,02,11,33,1.50
2010,06,02,11,34,0.20
2010,06,02,11,35,0.80
2010,06,02,11,36,0.20
2010,06,02,11,37,1.60
2010,06,02,11,38,1.30
2010,06,02,11,39,0.90
2010,06,02,11,40,0.40
2010,06,02,11,41,1.10
2010,06,02,11,42,0.80
2010,06,02,11,43,1.00
2010,06,02,11,44,2.70
2010,06,02,11,45,2.30
2010,06,02,11,46,0.70
2010,06,02,11,47,0.70
2010,06,02,11,48,1.60
2010,06,02,11,49,0.10
2010,06,02,11,50,0.20
2010,06,02,11,51,1.10
2010,06,02,11,52,1.90
2010,06,02,11,53,2.00
2010,06,02,11,54,1.10
2010,06,02,11,55,3.90
2010,06,02,11,56,4.20
2010,06,02,11,57,2.50
2010,06,02,11,58,3.50
2010,06,02,11,59,2.60
2010,06,02,12,00,3.10
2010,06,02,12,01,3.50
2010,06,02,12,02,2.20
2010,06,02,12,03,0.00
2010,06,02,12,04,0.60
2010,06,02,12,05,1.80
2010,06,02,12,06,2.80
2010,06,02,12,07,0.90
2010,06,02,12,08,0.50
2010,06,02,12,09,1.20
2010,06,02,12,10,0.50
2010,06,02,12,11,0.00
2010,06,02,12,12,0.00
2010,06,02,12,13,0.40
2010,06,02,12,14,1.20
2010,06,02,12,15,0.00
2010,06,02,12,16,0.00
2010,06,02,12,17,0.00
2010,06,02,12,18,0.10
2010,06,02,12,19,0.60
2010,06,02,12,20,0.70
2010,06,02,12,21,1.40
2010,06,02,12,22,0.70
2010,06,02,12,23,3.10
2010,06,02,12,24,4.50
2010,06,02,12,25,2.70
2010,06,02,12,26,4.80
2010,06,02,12,27,3.10
2010,06,02,12,28,5.60
2010,06,02,12,29,6.00
2010,06,02,12,30,4.40
2010,06,02,12,31,4.10
2010,06,02,12,32,5.10
2010,06,02,12,33,5.70
2010,06,02,12,34,4.30
2010,06,02,12,35,5.10
2010,06,02,12,36,6.40
2010,06,02,12,37,7.90
2010,06,02,12,38,8.30
2010,06,02,12,39,11.30
2010,06,02,12,40,8.20
2010,06,02,12,41,10.70
2010,06,02,12,42,8.20
2010,06,02,12,43,5.70
2010,06,02,12,44,5.40
2010,06,02,12,45,11.50
2010,06,02,12,46,7.50
2010,06,02,12,47,9.90
2010,06,02,12,48,6.80
2010,06,02,12,49,7.10
2010,06,02,12,50,8.00
2010,06,02,12,51,8.80
2010,06,02,12,52,5.20
2010,06,02,12,53,9.20
2010,06,02,12,54,9.70
2010,06,02,12,55,7.00
2010,06,02,12,56,12.80
2010,06,02,12,57,7.60
2010,06,02,12,58,11.20
2010,06,02,12,59,6.10
2010,06,02,13,00,11.00
2010,06,02,13,01,8.90
2010,06,02,13,02,7.80
2010,06,02,13,03,6.70
2010,06,02,13,04,6.80
2010,06,02,13,05,7.50
2010,06,02,13,06,7.00
2010,06,02,13,07,8.00
2010,06,02,13,08,9.60
2010,06,02,13,09,6.50
2010,06,02,13,10,8.00
2010,06,02,13,11,8.20
2010,06,02,13,12,7.20
2010,06,02,13,13,7.80
2010,06,02,13,14,10.10
2010,06,02,13,15,9.30
2010,06,02,13,16,8.00
2010,06,02,13,17,13.90
2010,06,02,13,18,15.10
2010,06,02,13,19,14.10
2010,06,02,13,20,14.30
2010,06,02,13,21,8.10
2010,06,02,13,22,7.60
2010,06,02,13,23,7.70
2010,06,02,13,24,16.90
2010,06,02,13,25,11.30
2010,06,02,13,26,13.00
2010,06,02,13,27,7.70
2010,06,02,13,28,7.70
2010,06,02,13,29,15.30
2010,06,02,13,30,7.40
2010,06,02,13,31,12.10
2010,06,02,13,32,9.90
2010,06,02,13,33,7.70
2010,06,02,13,34,13.90
2010,06,02,13,35,11.30
2010,06,02,13,36,10.40
2010,06,02,13,37,15.30
2010,06,02,13,38,8.00
2010,06,02,13,39,10.60
2010,06,02,13,40,6.40
2010,06,02,13,41,8.20
2010,06,02,13,42,6.80
2010,06,02,13,43,3.40
2010,06,02,13,44,6.10
2010,06,02,13,45,10.30
2010,06,02,13,46,9.40
2010,06,02,13,47,6.40
2010,06,02,13,48,12.00
2010,06,02,13,49,12.00
2010,06,02,13,50,11.20
2010,06,02,13,51,14.80
2010,06,02,13,52,13.20
2010,06,02,13,53,15.50
2010,06,02,13,54,9.70
2010,06,02,13,55,10.30
2010,06,02,13,56,14.20
2010,06,02,13,57,11.90
2010,06,02,13,58,9.90
2010,06,02,13,59,12.00
2010,06,02,14,00,12.80
2010,06,02,14,01,14.30
2010,06,02,14,02,8.20
2010,06,02,14,03,8.60
2010,06,02,14,04,7.40
2010,06,02,14,05,14.50
2010,06,02,14,06,10.30
2010,06,02,14,07,8.00
2010,06,02,14,08,8.00
2010,06,02,14,09,7.20
2010,06,02,14,10,14.30
2010,06,02,14,11,15.60
2010,06,02,14,12,15.60
2010,06,02,14,13,12.20
2010,06,02,14,14,12.70
2010,06,02,14,15,8.80
2010,06,02,14,16,12.80
2010,06,02,14,17,13.40
2010,06,02,14,18,18.10
2010,06,02,14,19,13.10
2010,06,02,14,20,11.30
2010,06,02,14,21,12.70
2010,06,02,14,22,13.20
2010,06,02,14,23,16.50
2010,06,02,14,24,16.20
2010,06,02,14,25,15.20
2010,06,02,14,26,16.70
2010,06,02,14,27,19.90
2010,06,02,14,28,20.10
2010,06,02,14,29,19.60
2010,06,02,14,30,18.00
2010,06,02,14,31,20.80
2010,06,02,14,32,13.90
2010,06,02,14,33,14.80
2010,06,02,14,34,16.20
2010,06,02,14,35,15.90
2010,06,02,14,36,12.90
2010,06,02,14,37,14.60
2010,06,02,14,38,13.80
2010,06,02,14,39,17.00
2010,06,02,14,40,14.30
2010,06,02,14,41,11.90
2010,06,02,14,42,12.70
2010,06,02,14,43,11.80
2010,06,02,14,44,15.90
2010,06,02,14,45,10.80
2010,06,02,14,46,16.40
2010,06,02,14,47,12.00
2010,06,02,14,48,10.00
2010,06,02,14,49,14.60
2010,06,02,14,50,17.30
2010,06,02,14,51,14.00
2010,06,02,14,52,7.00
2010,06,02,14,53,13.30
2010,06,02,14,54,11.00
2010,06,02,14,55,10.80
2010,06,02,14,56,15.70
2010,06,02,14,57,14.60
2010,06,02,14,58,13.10
2010,06,02,14,59,21.50
2010,06,02,15,00,14.30
2010,06,02,15,01,12.70
2010,06,02,15,02,14.70
2010,06,02,15,03,16.70
2010,06,02,15,04,13.20
2010,06,02,15,05,16.10
2010,06,02,15,06,17.30
2010,06,02,15,07,15.50
2010,06,02,15,08,18.10
2010,06,02,15,09,27.50
2010,06,02,15,10,18.90
2010,06,02,15,11,18.40
2010,06,02,15,12,21.70
2010,06,02,15,13,16.20
2010,06,02,15,14,20.40
2010,06,02,15,15,18.00
2010,06,02,15,16,19.30
2010,06,02,15,17,22.80
2010,06,02,15,18,19.50
2010,06,02,15,19,18.90
2010,06,02,15,20,16.90
2010,06,02,15,21,20.80
2010,06,02,15,22,27.60
2010,06,02,15,23,17.60
2010,06,02,15,24,18.90
2010,06,02,15,25,18.70
2010,06,02,15,26,17.90
2010,06,02,15,27,19.70
2010,06,02,15,28,26.70
2010,06,02,15,29,20.40
2010,06,02,15,30,17.40
2010,06,02,15,31,19.20
2010,06,02,15,32,16.60
2010,06,02,15,33,15.40
2010,06,02,15,34,24.60
2010,06,02,15,35,21.10
2010,06,02,15,36,27.30
2010,06,02,15,37,21.60
2010,06,02,15,38,29.90
2010,06,02,15,39,26.10
2010,06,02,15,40,22.80
2010,06,02,15,41,28.30
2010,06,02,15,42,21.70
2010,06,02,15,43,22.50
2010,06,02,15,44,17.90
2010,06,02,15,45,31.90
2010,06,02,15,46,24.40
2010,06,02,15,47,25.10
2010,06,02,15,48,22.10
2010,06,02,15,49,24.90
2010,06,02,15,50,15.00
2010,06,02,15,51,14.90
2010,06,02,15,52,21.60
2010,06,02,15,53,21.50
2010,06,02,15,54,14.00
2010,06,02,15,55,16.70
2010,06,02,15,56,11.80
2010,06,02,15,57,19.00
2010,06,02,15,58,19.20
2010,06,02,15,59,22.80
2010,06,02,16,00,22.80
2010,06,02,16,01,20.50
2010,06,02,16,02,20.30
2010,06,02,16,03,20.30
2010,06,02,16,04,26.90
2010,06,02,16,05,13.30
2010,06,02,16,06,12.30
2010,06,02,16,07,13.30
2010,06,02,16,08,18.10
2010,06,02,16,09,16.20
2010,06,02,16,10,16.90
2010,06,02,16,11,14.90
2010,06,02,16,12,16.00
2010,06,02,16,13,8.70
2010,06,02,16,14,10.40
2010,06,02,16,15,17.80
2010,06,02,16,16,13.90
2010,06,02,16,17,12.70
2010,06,02,16,18,21.60
2010,06,02,16,19,27.70
2010,06,02,16,20,30.60
2010,06,02,16,21,33.10
2010,06,02,16,22,21.60
2010,06,02,16,23,26.60
2010,06,02,16,24,27.20
2010,06,02,16,25,20.50
2010,06,02,16,26,20.30
2010,06,02,16,27,20.60
2010,06,02,16,28,21.20
2010,06,02,16,29,16.30
2010,06,02,16,30,28.70
2010,06,02,16,31,31.30
2010,06,02,16,32,19.30
2010,06,02,16,33,17.30
2010,06,02,16,34,23.80
2010,06,02,16,35,20.80
2010,06,02,16,36,21.30
2010,06,02,16,37,21.40
2010,06,02,16,38,19.80
2010,06,02,16,39,25.70
2010,06,02,16,40,23.10
2010,06,02,16,41,19.30
2010,06,02,16,42,22.20
2010,06,02,16,43,17.10
2010,06,02,16,44,12.60
2010,06,02,16,45,23.20
2010,06,02,16,46,16.90
2010,06,02,16,47,10.00
2010,06,02,16,48,16.70
2010,06,02,16,49,14.90
2010,06,02,16,50,13.90
2010,06,02,16,51,18.40
2010,06,02,16,52,27.50
2010,06,02,16,53,22.90
2010,06,02,16,54,20.40
2010,06,02,16,55,28.00
2010,06,02,16,56,23.30
2010,06,02,16,57,19.40
2010,06,02,16,58,15.70
2010,06,02,16,59,21.50
2010,06,02,17,00,32.20
2010,06,02,17,01,22.60
2010,06,02,17,02,20.50
2010,06,02,17,03,32.50
2010,06,02,17,04,31.60
2010,06,02,17,05,29.60
2010,06,02,17,06,30.10
2010,06,02,17,07,22.20
2010,06,02,17,08,32.00
2010,06,02,17,09,23.80
2010,06,02,17,10,23.60
2010,06,02,17,11,28.90
2010,06,02,17,12,24.50
2010,06,02,17,13,19.80
2010,06,02,17,14,22.60
2010,06,02,17,15,24.40
2010,06,02,17,16,30.50
2010,06,02,17,17,21.00
2010,06,02,17,18,20.00
2010,06,02,17,19,21.50
2010,06,02,17,20,21.70
2010,06,02,17,21,25.30
2010,06,02,17,22,26.40
2010,06,02,17,23,28.90
2010,06,02,17,24,25.60
2010,06,02,17,25,25.50
2010,06,02,17,26,16.60
2010,06,02,17,27,15.80
2010,06,02,17,28,18.20
2010,06,02,17,29,18.20
2010,06,02,17,30,23.50
2010,06,02,17,31,27.10
2010,06,02,17,32,34.20
2010,06,02,17,33,35.80
2010,06,02,17,34,38.30
2010,06,02,17,35,27.90
2010,06,02,17,36,32.50
2010,06,02,17,37,26.80
2010,06,02,17,38,23.20
2010,06,02,17,39,24.40
2010,06,02,17,40,30.40
2010,06,02,17,41,31.10
2010,06,02,17,42,28.60
2010,06,02,17,43,27.50
2010,06,02,17,44,39.50
2010,06,02,17,45,34.50
2010,06,02,17,46,29.50
2010,06,02,17,47,31.00
2010,06,02,17,48,29.60
2010,06,02,17,49,34.20
2010,06,02,17,50,30.40
2010,06,02,17,51,25.90
2010,06,02,17,52,31.30
2010,06,02,17,53,32.60
2010,06,02,17,54,30.40